EW3649 Weather Reports


time (UTC)temp
C
wind
direction
speed
KPH
gust
KPH
rain 1hr
cm
rain 24hr
cm
rain mn
cm
humidity
%
barometer
mb
20260905045005 13 0 0.0 0.0 0.00 0.13 0.05 85 1015.5
20260905043505 13 0 0.0 0.0 0.00 0.15 0.05 84 1015.5
20260905042505 13 0 0.0 0.0 0.00 0.18 0.05 83 1015.4
20260905042006 13 0 0.0 0.0 0.00 0.20 0.05 83 1015.4
20260905041006 13 0 0.0 0.0 0.00 0.20 0.05 82 1015.4
20260905040506 13 0 0.0 0.0 0.00 0.23 0.05 82 1015.4
20260905035505 13 0 0.0 0.0 0.00 0.25 0.05 81 1015.4
20260905034505 14 0 0.0 0.0 0.00 0.30 0.05 81 1015.3
20260905034006 14 0 0.0 0.0 0.00 0.30 0.05 81 1015.2
20260905032505 14 0 0.0 0.0 0.00 0.38 0.05 79 1015.2
20260905031504 15 0 0.0 0.0 0.00 0.41 0.05 78 1015.2
20260905031005 15 0 0.0 0.0 0.00 0.43 0.05 78 1015.1
20260905030505 15 0 0.0 0.0 0.00 0.46 0.05 77 1015.0
20260905030006 15 0 0.0 0.0 0.00 0.48 0.05 77 1015.0
20260905025504 15 0 0.0 0.0 0.00 0.51 0.05 77 1014.9
20260905024505 15 0 0.0 0.0 0.00 0.56 0.05 76 1014.9
20260905024006 15 0 0.0 0.0 0.00 0.58 0.05 75 1014.8
20260905023505 15 0 0.0 0.0 0.00 0.61 0.05 76 1014.8
20260905023006 15 0 0.0 0.0 0.00 0.64 0.05 75 1014.8
20260905022505 16 0 0.0 0.0 0.00 0.66 0.05 75 1014.8
20260905022005 16 0 0.0 0.0 0.00 0.71 0.05 74 1014.7
20260905021505 16 0 0.0 0.0 0.00 0.74 0.05 74 1014.7
20260905021006 16 0 0.0 0.0 0.00 0.76 0.05 75 1014.8
20260905020006 16 0 0.0 0.0 0.00 0.81 0.05 73 1014.8
20260905015505 16 0 0.0 0.0 0.00 0.86 0.05 72 1014.9
20260905015005 16 0 0.0 0.0 0.00 0.89 0.05 72 1014.8
20260905014505 16 0 0.0 0.0 0.00 0.91 0.05 71 1014.8
20260905014005 16 0 0.0 0.0 0.00 0.94 0.05 71 1014.7
20260905013504 16 0 0.0 0.0 0.00 0.99 0.05 70 1014.7
20260905012505 16 0 0.0 0.0 0.00 1.04 0.05 69 1014.5
20260905011504 17 0 0.0 0.0 0.00 1.12 0.05 67 1014.5
20260905011005 17 0 0.0 0.0 0.00 1.14 0.05 66 1014.4
20260905010504 17 0 0.0 0.0 0.00 1.17 0.05 66 1014.3
20260905010005 17 0 0.0 0.0 0.00 1.19 0.05 64 1014.3
20260905005504 18 0 0.0 0.0 0.00 1.22 0.05 62 1014.2
20260905004504 18 0 0.0 0.0 0.00 1.27 0.05 61 1014.1
20260905003505 18 0 0.0 0.0 0.00 1.27 0.05 61 1014.0
20260905003005 18 0 0.0 0.0 0.00 1.27 0.05 62 1014.0
20260905002005 18 0 0.0 0.0 0.00 1.27 0.05 59 1013.9
20260905001505 19 0 0.0 0.0 0.00 1.27 0.05 57 1013.9
20260905001005 19 0 0.0 0.0 0.00 1.27 0.05 62 1013.9
20260905000505 19 0 0.0 0.0 0.00 1.27 0.05 60 1013.9
20260905000005 19 0 0.0 0.0 0.00 1.27 0.05 61 1013.8
20260904235505 19 0 0.0 0.0 0.00 1.27 0.05 59 1013.9
20260904235005 19 0 0.0 0.0 0.00 1.27 0.05 58 1013.9
20260904234504 20 0 0.0 0.0 0.00 1.27 0.05 60 1013.9
20260904234005 20 0 0.0 0.0 0.00 1.27 0.05 58 1014.0
20260904233505 20 0 0.0 0.0 0.00 1.27 0.05 61 1014.0
20260904233006 21 0 0.0 0.0 0.00 1.27 0.05 59 1013.9
20260904232005 21 255 0.0 3.2 0.00 1.27 0.05 57 1013.8
20260904231005 21 255 0.0 1.6 0.00 1.27 0.05 58 1013.7
20260904230505 21 0 0.0 0.0 0.00 1.27 0.05 59 1013.6
20260904230005 20 0 0.0 0.0 0.00 1.27 0.05 61 1013.6
20260904225504 20 255 0.0 1.6 0.00 1.27 0.05 65 1013.5
20260904225005 19 255 0.0 1.6 0.00 1.27 0.05 62 1013.5
20260904224505 19 0 0.0 0.0 0.00 1.27 0.05 63 1013.4
20260904224006 19 0 0.0 0.0 0.00 1.27 0.05 62 1013.4
20260904223504 19 0 0.0 0.0 0.00 1.27 0.05 63 1013.3
20260904223005 19 0 0.0 0.0 0.00 1.27 0.05 63 1013.2
20260904222504 20 0 0.0 0.0 0.00 1.27 0.05 60 1013.2
20260904222005 20 0 0.0 0.0 0.00 1.27 0.05 60 1013.2
20260904221005 20 0 0.0 0.0 0.00 1.27 0.05 59 1013.2
20260904220505 20 0 0.0 0.0 0.00 1.27 0.05 57 1013.2
20260904220005 21 0 0.0 0.0 0.00 1.27 0.05 57 1013.2
20260904215504 21 0 0.0 0.0 0.00 1.27 0.05 59 1013.1
20260904215005 21 255 0.0 3.2 0.00 1.27 0.05 58 1013.1
20260904214504 21 255 0.0 3.2 0.00 1.27 0.05 55 1013.1
20260904214005 21 255 0.0 3.2 0.00 1.27 0.05 58 1013.1
20260904213504 21 255 0.0 3.2 0.00 1.27 0.05 55 1013.0
20260904213005 21 255 0.0 1.6 0.00 1.27 0.05 56 1013.0
20260904212504 21 255 0.0 1.6 0.00 1.27 0.05 58 1013.0
20260904212005 21 0 0.0 0.0 0.00 1.27 0.05 60 1013.0
20260904211504 21 255 0.0 1.6 0.00 1.30 0.05 60 1012.9
20260904211005 20 255 0.0 1.6 0.00 1.30 0.05 61 1012.8
20260904210505 20 255 0.0 6.4 0.00 1.30 0.05 62 1012.9
20260904210005 20 255 0.0 6.4 0.00 1.30 0.05 61 1012.9
20260904205504 20 255 0.0 4.8 0.00 1.30 0.05 61 1013.0
20260904205005 20 255 0.0 3.2 0.00 1.30 0.05 60 1013.0
20260904204505 20 0 0.0 0.0 0.00 1.30 0.05 65 1013.0
20260904204005 20 0 0.0 0.0 0.00 1.30 0.05 64 1012.9
20260904203504 20 0 0.0 0.0 0.00 1.30 0.05 67 1013.1
20260904203005 19 0 0.0 0.0 0.00 1.30 0.05 64 1013.1
20260904202505 19 0 0.0 0.0 0.00 1.30 0.05 64 1013.2
20260904201006 19 0 0.0 0.0 0.00 1.30 0.05 65 1013.1
20260904200505 19 0 0.0 0.0 0.00 1.30 0.05 67 1013.2
20260904200004 19 0 0.0 0.0 0.00 1.30 0.05 65 1013.2
20260904195504 19 0 0.0 0.0 0.00 1.30 0.05 67 1013.2
20260904195004 18 0 0.0 0.0 0.00 1.30 0.05 68 1013.1
20260904194505 18 0 0.0 0.0 0.00 1.30 0.05 68 1013.1
20260904194005 18 0 0.0 0.0 0.00 1.30 0.05 73 1013.2
20260904193505 18 0 0.0 0.0 0.00 1.30 0.05 72 1013.1
20260904192505 18 0 0.0 0.0 0.00 1.30 0.05 70 1013.1
20260904192005 18 0 0.0 0.0 0.00 1.30 0.05 71 1013.1
20260904191504 18 0 0.0 0.0 0.00 1.30 0.05 71 1013.1
20260904191005 18 0 0.0 0.0 0.00 1.30 0.05 74 1013.2
20260904190504 18 0 0.0 0.0 0.00 1.30 0.05 74 1013.2
20260904190005 17 0 0.0 0.0 0.00 1.30 0.05 75 1013.2
20260904185504 17 0 0.0 0.0 0.00 1.30 0.05 75 1013.2
20260904185005 17 0 0.0 0.0 0.00 1.30 0.05 75 1013.1
20260904184504 17 0 0.0 0.0 0.00 1.30 0.05 75 1013.2
20260904184004 17 0 0.0 0.0 0.00 1.30 0.05 78 1013.3
20260904183504 17 0 0.0 0.0 0.00 1.30 0.05 80 1013.2
20260904182504 16 0 0.0 0.0 0.00 1.30 0.05 81 1013.2
20260904182004 16 0 0.0 0.0 0.00 1.30 0.05 82 1013.3
20260904181504 16 0 0.0 0.0 0.00 1.30 0.05 82 1013.3
20260904181005 16 0 0.0 0.0 0.00 1.30 0.05 80 1013.4
20260904175504 15 0 0.0 0.0 0.00 1.30 0.05 86 1013.4
20260904175004 15 0 0.0 0.0 0.00 1.30 0.05 87 1013.4
20260904174505 15 0 0.0 0.0 0.00 1.30 0.05 88 1013.4
20260904174005 15 0 0.0 0.0 0.00 1.30 0.05 90 1013.5
20260904173504 15 0 0.0 0.0 0.00 1.30 0.05 92 1013.5
20260904173005 14 0 0.0 0.0 0.00 1.30 0.05 92 1013.4
20260904172506 14 0 0.0 0.0 0.00 1.30 0.05 92 1013.4
20260904172004 14 0 0.0 0.0 0.00 1.30 0.05 93 1013.4
20260904171505 14 0 0.0 0.0 0.00 1.30 0.05 93 1013.4
20260904171004 14 0 0.0 0.0 0.00 1.30 0.05 94 1013.4
20260904170504 13 0 0.0 0.0 0.00 1.30 0.05 94 1013.4
20260904170005 13 0 0.0 0.0 0.00 1.30 0.05 94 1013.4
20260904165505 13 0 0.0 0.0 0.00 1.30 0.05 94 1013.4
20260904165005 13 0 0.0 0.0 0.00 1.30 0.05 94 1013.4
20260904164005 13 0 0.0 0.0 0.00 1.30 0.05 94 1013.3
20260904163505 13 0 0.0 0.0 0.00 1.30 0.05 94 1013.4
20260904163004 13 0 0.0 0.0 0.00 1.30 0.05 94 1013.4
20260904162504 12 0 0.0 0.0 0.00 1.30 0.05 95 1013.4
20260904162005 12 0 0.0 0.0 0.00 1.30 0.05 95 1013.4
20260904161505 12 0 0.0 0.0 0.00 1.30 0.05 94 1013.3
20260904161005 12 0 0.0 0.0 0.00 1.30 0.05 94 1013.3
20260904160505 12 0 0.0 0.0 0.00 1.30 0.05 95 1013.2
20260904160004 12 0 0.0 0.0 0.00 1.30 0.05 94 1013.2
20260904155505 12 0 0.0 0.0 0.00 1.30 0.05 94 1013.2
20260904155005 12 0 0.0 0.0 0.00 1.30 0.05 94 1013.2
20260904154504 12 0 0.0 0.0 0.00 1.30 0.05 94 1013.1
20260904154005 12 0 0.0 0.0 0.00 1.30 0.05 94 1013.1
20260904153505 12 0 0.0 0.0 0.00 1.30 0.05 94 1013.0
20260904153005 12 0 0.0 0.0 0.00 1.30 0.05 94 1012.9
20260904152504 12 0 0.0 0.0 0.00 1.30 0.05 94 1012.9
20260904151005 12 0 0.0 0.0 0.00 1.30 0.05 95 1012.8
20260904150005 11 0 0.0 0.0 0.00 1.30 0.05 95 1012.7
20260904145504 11 0 0.0 0.0 0.00 1.30 0.05 95 1012.6
20260904144505 11 0 0.0 0.0 0.00 1.30 0.05 95 1012.5
20260904144005 11 0 0.0 0.0 0.00 1.30 0.05 94 1012.5
20260904143004 11 0 0.0 0.0 0.00 1.30 0.05 94 1012.4
20260904142504 11 0 0.0 0.0 0.00 1.30 0.05 94 1012.5
20260904141504 11 0 0.0 0.0 0.00 1.32 0.05 94 1012.4
20260904141005 11 0 0.0 0.0 0.00 1.32 0.05 94 1012.3
20260904140504 11 0 0.0 0.0 0.00 1.32 0.05 94 1012.2
20260904140006 11 0 0.0 0.0 0.00 1.32 0.05 94 1012.2
20260904135505 11 0 0.0 0.0 0.00 1.32 0.05 94 1012.1
20260904135006 11 0 0.0 0.0 0.00 1.32 0.05 94 1012.1
20260904134505 11 0 0.0 0.0 0.00 1.35 0.05 94 1012.0
20260904134005 11 0 0.0 0.0 0.00 1.35 0.05 94 1011.9
20260904133504 11 0 0.0 0.0 0.00 1.35 0.05 94 1011.9
20260904133004 11 0 0.0 0.0 0.00 1.35 0.05 94 1011.8
20260904132504 11 0 0.0 0.0 0.00 1.35 0.05 94 1011.8
20260904132005 11 0 0.0 0.0 0.00 1.37 0.05 94 1011.8
20260904131504 11 0 0.0 0.0 0.00 1.37 0.05 94 1011.8
20260904130504 11 0 0.0 0.0 0.00 1.40 0.05 94 1011.6
20260904130006 11 0 0.0 0.0 0.00 1.40 0.05 94 1011.6
20260904125504 10 0 0.0 0.0 0.00 1.42 0.05 94 1011.6
20260904125005 10 0 0.0 0.0 0.00 1.42 0.05 94 1011.6
20260904124504 10 0 0.0 0.0 0.00 1.42 0.05 94 1011.6
20260904124005 10 0 0.0 0.0 0.00 1.42 0.05 94 1011.5
20260904123504 10 0 0.0 0.0 0.00 1.42 0.05 94 1011.5
20260904123006 10 0 0.0 0.0 0.00 1.45 0.05 94 1011.5
20260904122504 10 0 0.0 0.0 0.00 1.45 0.05 94 1011.4
20260904122004 10 0 0.0 0.0 0.00 1.45 0.05 94 1011.4
20260904121504 10 0 0.0 0.0 0.00 1.45 0.05 94 1011.4
20260904121005 10 0 0.0 0.0 0.00 1.45 0.05 94 1011.3
20260904120503 11 0 0.0 0.0 0.00 1.45 0.05 94 1011.3
20260904120005 11 0 0.0 0.0 0.00 1.45 0.05 94 1011.2
20260904115504 11 0 0.0 0.0 0.00 1.45 0.05 94 1011.1
20260904115006 11 0 0.0 0.0 0.00 1.45 0.05 94 1011.1
20260904114004 11 0 0.0 0.0 0.00 1.45 0.05 94 1011.1
20260904113503 11 0 0.0 0.0 0.00 1.45 0.05 94 1011.1
20260904113005 11 0 0.0 0.0 0.00 1.45 0.05 94 1011.0
20260904112504 11 0 0.0 0.0 0.00 1.45 0.05 94 1011.0
20260904112005 11 0 0.0 0.0 0.00 1.45 0.05 94 1011.0
20260904111006 11 0 0.0 0.0 0.00 1.45 0.05 94 1011.0
20260904110004 11 0 0.0 0.0 0.00 1.45 0.05 94 1010.9
20260904105503 11 0 0.0 0.0 0.00 1.45 0.05 94 1010.9
20260904105004 11 0 0.0 0.0 0.00 1.45 0.05 94 1010.9
20260904104504 11 0 0.0 0.0 0.00 1.45 0.05 94 1010.9
20260904103504 11 0 0.0 0.0 0.00 1.47 0.05 94 1010.8
20260904103005 11 0 0.0 0.0 0.00 1.47 0.05 94 1010.8
20260904102503 11 0 0.0 0.0 0.00 1.47 0.05 94 1010.7
20260904102005 11 0 0.0 0.0 0.00 1.47 0.05 94 1010.8
20260904101504 11 0 0.0 0.0 0.00 1.47 0.05 94 1010.7
20260904101004 11 0 0.0 0.0 0.00 1.47 0.05 94 1010.7
20260904100503 11 0 0.0 0.0 0.00 1.47 0.05 94 1010.6
20260904100005 11 0 0.0 0.0 0.00 1.47 0.05 94 1010.6
20260904095504 11 0 0.0 0.0 0.00 1.47 0.05 94 1010.5
20260904095003 11 0 0.0 0.0 0.00 1.47 0.05 94 1010.5
20260904094504 11 0 0.0 0.0 0.00 1.47 0.05 94 1010.5
20260904094003 11 0 0.0 0.0 0.00 1.47 0.05 94 1010.5
20260904093503 11 0 0.0 0.0 0.00 1.47 0.05 94 1010.6
20260904093004 11 0 0.0 0.0 0.00 1.47 0.05 94 1010.6
20260904092503 11 0 0.0 0.0 0.00 1.47 0.05 94 1010.6
20260904092004 11 0 0.0 0.0 0.00 1.47 0.05 94 1010.6
20260904091503 11 0 0.0 0.0 0.00 1.47 0.05 94 1010.6
20260904091004 11 0 0.0 0.0 0.00 1.47 0.05 94 1010.7
20260904090004 11 0 0.0 0.0 0.00 1.47 0.05 93 1010.6
20260904085504 11 0 0.0 0.0 0.00 1.47 0.05 94 1010.6
20260904085004 11 0 0.0 0.0 0.00 1.47 0.05 94 1010.6
20260904084504 11 0 0.0 0.0 0.00 1.47 0.05 94 1010.6
20260904084004 11 0 0.0 0.0 0.00 1.47 0.05 94 1010.7
20260904083504 11 0 0.0 0.0 0.03 1.47 0.05 94 1010.8
20260904083004 11 0 0.0 0.0 0.03 1.47 0.05 94 1010.7
20260904082503 11 0 0.0 0.0 0.03 1.47 0.05 93 1010.7
20260904082004 11 0 0.0 0.0 0.03 1.47 0.05 93 1010.7
20260904081503 11 0 0.0 0.0 0.03 1.47 0.05 93 1010.5
20260904081004 11 0 0.0 0.0 0.03 1.47 0.05 93 1010.5
20260904080004 11 0 0.0 0.0 0.05 1.47 0.05 93 1010.3
20260904075504 11 0 0.0 0.0 0.05 1.47 0.05 93 1010.3
20260904075005 11 0 0.0 0.0 0.05 1.47 0.05 93 1010.4
20260904074504 11 0 0.0 0.0 0.05 1.47 0.05 93 1010.5
20260904074004 11 0 0.0 0.0 0.08 1.47 0.05 93 1010.6
20260904073504 11 0 0.0 0.0 0.05 1.45 0.03 93 1010.6
20260904073003 11 0 0.0 0.0 0.05 1.45 0.03 93 1010.7
20260904072504 11 0 0.0 0.0 0.05 1.45 0.03 93 1010.7
20260904072004 11 0 0.0 0.0 0.08 1.45 0.03 93 1010.8
20260904071503 11 0 0.0 0.0 0.08 1.45 0.03 93 1010.8
20260904071004 11 0 0.0 0.0 0.08 1.45 0.03 93 1010.7
20260904070504 12 0 0.0 0.0 0.05 1.42 0.00 93 1010.7
20260904070006 12 0 0.0 0.0 0.05 1.42 0.00 93 1010.8
20260904065503 12 0 0.0 0.0 0.05 1.42 1.42 93 1010.8
20260904065004 12 0 0.0 0.0 0.05 1.42 1.42 93 1010.8
20260904064503 12 0 0.0 0.0 0.05 1.42 1.42 93 1010.7
20260904064004 12 0 0.0 0.0 0.05 1.40 1.40 93 1010.7
20260904063505 12 0 0.0 0.0 0.05 1.40 1.40 93 1010.7
20260904063006 12 0 0.0 0.0 0.05 1.40 1.40 93 1010.8
20260904062505 12 0 0.0 0.0 0.05 1.40 1.40 93 1010.7
20260904062005 12 0 0.0 0.0 0.03 1.37 1.37 93 1010.7
20260904061506 12 0 0.0 0.0 0.03 1.37 1.37 93 1010.7
20260904061005 12 0 0.0 0.0 0.03 1.37 1.37 93 1010.7
20260904060006 12 0 0.0 0.0 0.03 1.37 1.37 93 1010.6
20260904055506 12 0 0.0 0.0 0.03 1.37 1.37 93 1010.6
20260904055006 12 0 0.0 0.0 0.03 1.37 1.37 93 1010.5
20260904054505 12 0 0.0 0.0 0.05 1.37 1.37 93 1010.5
20260904054006 12 0 0.0 0.0 0.03 1.35 1.35 93 1010.5
20260904053505 12 0 0.0 0.0 0.03 1.35 1.35 93 1010.5
20260904053006 12 0 0.0 0.0 0.05 1.35 1.35 93 1010.5
20260904052006 12 0 0.0 0.0 0.08 1.35 1.35 93 1010.5
20260904051006 12 0 0.0 0.0 0.08 1.37 1.35 93 1010.5
20260904050505 12 0 0.0 0.0 0.10 1.37 1.35 93 1010.5
20260904045505 12 0 0.0 0.0 0.13 1.37 1.35 93 1010.5